This demonstration page uses our WeatherBlox Daily Observations layout. Learn more.

Left ArrowRight Arrow

Hourly Observations for April 10, 2016

Temp ( °F °C ) Dew Point ( °F °C ) Humidity (%) Winds ( mph kmh ) Pressure ( in mb ) Visibility ( mi km ) Precip ( " mm )
12:01 am 00:01 Cloudy with Light Rain 59 15 56 13.3 90 90 SSE 3 6 29.83 1010 10 16 0.01 0.25
12:10 am 00:10 Cloudy with Light Rain 57 14 55 13 94 94 ESE 5 7 29.83 1010 10 16 0.00 0.00
12:53 am 00:53 Cloudy 59 15 56 13.3 90 90 ESE 5 7 29.83 1010 10 16 0.02 0.51
1:36 am 01:36 Cloudy 57 14 55 13 94 94 SSE 5 7 29.85 1011 10 16 0.00 0.00
1:53 am 01:53 Cloudy with Mist and Fog 58 14.4 55 12.8 90 90 S 6 9 29.84 1011 5 8 0.00 0.00
2:53 am 02:53 Cloudy 58 14.4 55 12.8 90 90 SSW 3 6 29.83 1010 10 16 0.00 0.00
3:48 am 03:48 Cloudy 57 14 55 13 94 94 Calm 29.85 1011 10 16 0.00 0.00
3:53 am 03:53 Cloudy 58 14.4 55 12.8 90 90 Calm 29.84 1010 10 16 0.00 0.00
4:53 am 04:53 Cloudy 58 14.4 55 12.8 90 90 SSE 3 6 29.83 1010 10 16 0.00 0.00
5:00 am 05:00 Cloudy 57 14 55 13 94 94 Calm 29.83 1010 10 16 0.00 0.00
5:32 am 05:32 Cloudy 59 15 55 13 88 88 Calm 29.83 1010 10 16 0.00 0.00
5:44 am 05:44 Cloudy 59 15 55 13 88 88 Calm 29.83 1010 10 16 0.00 0.00
5:53 am 05:53 Cloudy 59 15 55 12.8 87 87 Calm 29.83 1010 10 16 0.00 0.00
6:45 am 06:45 Cloudy 59 15 55 12.8 87 87 Calm 29.83 1010 10 16 0.00 0.00
6:53 am 06:53 Cloudy 58 14.4 55 12.8 90 90 SE 3 6 29.83 1010 10 16 0.00 0.00
7:07 am 07:07 Cloudy 58 14.4 55 12.8 90 90 SSE 5 7 29.83 1010 10 16 0.00 0.00
7:53 am 07:53 Cloudy 58 14.4 55 12.8 90 90 SSE 3 6 29.84 1011 10 16 0.00 0.00
8:00 am 08:00 Cloudy 57 14 55 13 94 94 SSE 3 6 29.85 1011 10 16 0.00 0.00
8:53 am 08:53 Cloudy 59 15 55 12.8 87 87 SSE 6 9 29.85 1011 9 14 0.00 0.00
9:08 am 09:08 Cloudy 59 15 55 13 88 88 SSE 5 7 29.85 1011 10 16 0.00 0.00
9:16 am 09:16 Cloudy 59 15 55 13 88 88 S 3 6 29.85 1011 10 16 0.00 0.00
9:26 am 09:26 Cloudy 59 15 55 13 88 88 Calm 29.88 1012 10 16 0.00 0.00
9:35 am 09:35 Cloudy 59 15 55 12.8 87 87 SSW 5 7 29.88 1012 10 16 0.00 0.00
9:53 am 09:53 Cloudy 59 15 55 12.8 87 87 SSW 6 9 29.86 1011 10 16 0.00 0.00
10:53 am 10:53 Cloudy with Light Rain 59 15 55 12.8 87 87 Calm 29.87 1012 8 13 0.00 0.03
11:43 am 11:43 Cloudy 62 16.7 55 12.8 78 78 S 5 7 29.88 1012 8 13 0.00 0.03
11:53 am 11:53 Cloudy 62 16.7 55 12.8 78 78 S 3 6 29.88 1012 8 13 0.00 0.03
12:53 pm 12:53 Cloudy 63 17.2 55 12.8 76 76 SSE 5 7 29.87 1012 10 16 0.00 0.00
1:53 pm 13:53 Cloudy 63 17.2 55 12.8 76 76 SE 6 9 29.87 1011 10 16 0.00 0.00
2:53 pm 14:53 Cloudy 65 18.3 55 12.8 70 70 Calm 29.86 1011 10 16 0.00 0.00
3:01 pm 15:01 Cloudy 65 18.3 55 12.8 70 70 VRB 3 6 29.88 1012 10 16 0.00 0.00
3:37 pm 15:37 Cloudy 65 18.3 55 12.8 70 70 SSW 7 11 29.85 1011 10 16 0.00 0.00
3:53 pm 15:53 Cloudy 66 18.9 54 12.2 65 65 SSW 7 11 29.84 1011 10 16 0.00 0.00
4:53 pm 16:53 Cloudy 67 19.4 55 12.8 66 66 VRB 6 9 29.84 1011 10 16 0.00 0.00
5:53 pm 17:53 Cloudy 66 18.9 55 12.8 68 68 SSW 6 9 29.85 1011 10 16 0.00 0.00
6:53 pm 18:53 Cloudy 66 18.9 56 13.3 70 70 SSE 5 7 29.87 1012 10 16 0.00 0.00
7:53 pm 19:53 Cloudy 65 18.3 55 12.8 70 70 Calm 29.88 1012 10 16 0.00 0.00
8:53 pm 20:53 Clear 61 16.1 56 13.3 84 84 Calm 29.91 1013 10 16 0.00 0.00
9:53 pm 21:53 Cloudy 62 16.7 56 13.3 80 80 N 3 6 29.94 1014 10 16 0.00 0.00
10:53 pm 22:53 Cloudy 62 16.7 56 13.3 80 80 Calm 29.95 1014 10 16 0.00 0.00
11:15 pm 23:15 Cloudy with Light Rain 62 16.7 56 13.3 80 80 Calm 29.94 1014 10 16 0.00 0.03
11:53 pm 23:53 Cloudy 61 16.1 57 13.9 87 87 Calm 29.95 1014 10 16 0.00 0.03

Powered by AerisWeather